Location: Armstrong Village
(14.3346°N, 120.9854°E)
Time: 12:19:59
(UTC+00:00)

Cosmos 1821 Rocket - Pass Details

Date: 18 April 2026
Orbit: 945 x 1003 km, 82.9° (Epoch: 12 May)

Event Time Altitude Azimuth Distance (km) Brightness Sun altitude
Exits shadow 10:53:50 14° 112° (ESE) 2,434 5.4 -11.1°
Maximum altitude 10:55:57 16° 89° (E) 2,287 5.3 -11.6°
Drops below altitude 10° 10:59:34 10° 52° (NE) 2,718 6.0 -12.5°
Sets 11:03:07 0° 32° (NNE) 3,679 6.8 -13.3°
